Airfield :
LOGIN :

Register | Disclaimer

   EN    FR    IT 

 










Legend :    VFR   Marginal VFR   IFR   Intensive IFR   Very Intensive IFR
Visi :
Ceiling :
>= 8 km
>= 3000ft
5 to 8 km
1000 to 3000 ft
1500m to 5 km
500 to 1000 ft
800 to 1500m
200 to 500 ft
< 800m
< 200 ft
Symbols :   Thunderstorms  Fog  Heavy snow  Heavy precipitations  Wind > 20 kt
SIGMETs :     Misc.  Thunderstorms  Icing  Turbulence  Mountain Waves  Volcanic Ashes







- Airport Elevation : 308 ft
- IATA code : POZ


EPPO - Poznan-Lawica

CURRENT METAR :
  • 210300Z 08004KT CAVOK 09/05 Q1025

EXPIRED METARs :
  • 210230Z 08007KT CAVOK 10/06 Q1025
  • 210200Z 07007KT CAVOK 10/05 Q1025
  • 210130Z 06006KT CAVOK 10/05 Q1025
  • 210100Z 08005KT CAVOK 10/05 Q1025
  • 210030Z 07008KT CAVOK 11/05 Q1025

TAF TAF EPPO
Valid from the 21 at 00:00 until the 22 at 00:00 UTC


202330Z 2100/2124 07008KT CAVOK
PROB40
TEMPO 2108/2115 09015G25KT
No reported NOTAMs for that airfield.



MET'MAP, your aeronautical weather chart ! - Copyright ORBIFLY December 2007 - Disclaimer

ORBIFLY MET'MAP TEAM :

Programming & Development : Alexandra Zaïnal
Concept & Development : Baudouin d'Aumeries
Co-Development & Prog : Marc-Olivier Méhu
Technical & hardware support : Manuel Goepfert

Contact : metmap@orbifly.com




SOURCES & CREDITS :

   NOAA